Regional Weather Roundup
Issued by NWS San Diego, CA

Home | Current Version | Previous Version | Text Only | Print | Product List | Glossary On
Versions: 1 2 3 4 5 6 7 8 9 10 11 12 13 14 15 16 17 18 19 20 21 22 23 24 25 26 27 28 29 30 31 32 33 34 35 36 37 38 39 40 41 42 43 44 45 46 47 48 49 50
696
ASUS46 KSGX 292311
RWRSGX

SAN DIEGO HOURLY WEATHER ROUNDUP
NATIONAL WEATHER SERVICE SAN DIEGO CA
400 PM PDT WED MAR 29 2017

NOTE: "FAIR" INDICATES FEW OR NO CLOUDS BELOW 12,000 FEET WITH NO
SIGNIFICANT WEATHER AND/OR OBSTRUCTIONS TO VISIBILITY.

CAZ042-043-060-061-PZZ750-775-300000-

GREATER SAN DIEGO AREA

CITY           SKY/WX    TMP DP  RH WIND       PRES   REMARKS
SAN DIEGO AP   MOSUNNY   75  36  24 NW12      30.02F
NATIONAL CITY    N/A     77  42  28 W3        30.01S
CHULA VISTA      N/A     79  38  22 W5        29.93S
IMPERIAL BEACH MOSUNNY   73  45  36 NW9       30.01F
BROWN FIELD    SUNNY     77  35  21 W12       30.01S
MIRAMAR MCAS   MOSUNNY   79  36  21 NW13      30.01F
MONTGOMERY FLD SUNNY     79  35  20 NW12      30.01S

$$

NORTH SAN DIEGO COUNTY

CITY           SKY/WX    TMP DP  RH WIND       PRES   REMARKS
CAMP PENDLETON MOSUNNY   80  42  25 W9        29.99F
OCEANSIDE AP   SUNNY     72  57  59 SW10      30.00S
OCEANSIDE HBR    N/A     66  60  81 NW7       30.04S
CARLSBAD       SUNNY     70  52  52 W8        30.01F
DEL MAR          N/A     73  59  62 CALM      30.04S
LA JOLLA SCRIP   N/A     65  58  78 W2        30.01F
FALLBROOK        N/A     80  46  29 SW2       29.97F
ESCONDIDO        N/A     79  36  21 W10       30.01F
SAN MARCOS       N/A     78  46  31 NW6       30.02F
POWAY            N/A     83  33  17 N6        30.02F

$$

EAST SAN DIEGO COUNTY

CITY           SKY/WX    TMP DP  RH WIND       PRES   REMARKS
RAMONA         SUNNY     76  44  32 W10       30.03S
SANTEE LAKES     N/A     81  43  25 W9        29.99F
LA MESA          N/A     80  33  18 NW6       29.94F
JAMUL            N/A     79  38  23 CALM      30.01F
DESCANSO N       N/A     71  38  30 W6        29.98F
CAMPO            N/A     78  31  17 SW12      30.00F

$$

ORANGE COUNTY AND THE LOS ANGELES BASIN

CITY           SKY/WX    TMP DP  RH WIND       PRES   REMARKS
JOHN WAYNE AP  MOSUNNY   77  41  27 SW9       30.01S
LAGUNA BEACH     N/A     73  60  63 CALM      29.97S
LAKE FOREST FR   N/A     82  38  21 W3        29.90F
HUNTINGTON BCH   N/A     70  59  67 SW5       30.03S
LOS ALAMITOS   MOSUNNY   72  53  51 S9        30.00S
FULLERTON      SUNNY     80  43  26 S14G21    29.99S
LONG BEACH     SUNNY     83  31  15 W13       30.00S
L.A. AP        MOSUNNY   73  45  36 W12       30.01S
L.A. DOWNTOWN  SUNNY     78  34  20 W7        30.00S

$$

THE INLAND EMPIRE

CITY           SKY/WX    TMP DP  RH WIND       PRES   REMARKS
CORONA         SUNNY     83  35  18 W10G20    30.00S
CHINO          MOSUNNY   83  40  21 SW18      30.00F
ONTARIO        MOSUNNY   84  29  13 W12       30.00F
SAN BERNARDINO MOSUNNY   86  28  12 SW13      29.99F
RIVERSIDE AP   SUNNY     84  36  18 W13       29.99F
MORENO VALLEY    N/A     85  40  20 W3        28.12F
MARCH ARB      SUNNY     82  33  16 W10       30.01F
HORSETHIEF CYN   N/A     83  29  14 E2        30.00F
PERRIS           N/A     82  35  18 W6        30.01F
HEMET EAST       N/A     82  29  15 W2        30.05F
FRENCH VALLEY  FAIR      82  37  20 S13       30.01S
TEMECULA         N/A     80  39  23 SW12      30.02F

$$

SAN BERNARDINO AND RIVERSIDE COUNTY MOUNTAINS

CITY           SKY/WX    TMP DP  RH WIND       PRES   REMARKS
BIG BEAR AP    SUNNY     61  23  23 W8        30.23S
ANGELUS OAKS     N/A     65  34  32 CALM      29.97F
PINE COVE        N/A     63  31  30 W1        30.07F

$$

SOUTHERN DESERT INCLUDING THE COACHELLA VALLEY

CITY           SKY/WX    TMP DP  RH WIND       PRES   REMARKS
PALM SPRINGS   SUNNY     90  23   9 VRB3      29.94F
PALM DESERT      N/A     93  29  10 CALM      29.82F
THERMAL        SUNNY     91  18   7 NW3       29.89F
BLYTHE         SUNNY     86  20   9 NW8       29.94F
IMPERIAL AP    SUNNY     88  26  10 N6        29.92F
EL CENTRO NAS  MOSUNNY   88  15   6 NW6       29.94F
YUMA AZ        MOSUNNY   87  18   8 N8        29.92
MEXICALI       SUNNY     86  19   8 NW9       29.94F

$$

UPPER DESERT

CITY           SKY/WX    TMP DP  RH WIND       PRES   REMARKS
VICTORVILLE AP SUNNY     75  21  13 CALM      30.08F
HESPERIA         N/A     76  25  15 N2        30.18F
PALMDALE       SUNNY     79  27  14 CALM      30.08F
LANCASTER      SUNNY     77  24  14 CALM      30.07F
EDWARDS AFB    PTSUNNY   76  19  12 N5        30.04F
DAGGETT        SUNNY     79  24  13 N3        30.04F
29 PALMS N     SUNNY     80  18  10 CALM      30.09F
NEEDLES        SUNNY     85  20   9 N14       29.96F

$$

REGIONAL REPORTS

CITY           SKY/WX    TMP DP  RH WIND       PRES   REMARKS
SANTA BARBARA  SUNNY     73  38  27 SW7       30.02S
SANDBERG       SUNNY     74  29  19 VRB7      30.17F
LAS VEGAS NV   MOSUNNY   76  19  11 NE7       30.03F
PHOENIX AZ     PTSUNNY   83  24  11 W15G21    29.88F
TIJUANA        SUNNY     77  23  13 NW12      30.03S
ENSENADA NW      N/A     68  32  26 W10       29.98S

$$

OFFSHORE ISLANDS

CITY           SKY/WX    TMP DP  RH WIND       PRES   REMARKS
CATALINA ARPT  NOT AVBL
SAN CLEMENTE I MOSUNNY   69  49  48 W6        30.05S
SAN NICOLAS IS MOSUNNY   74  37  26 NW6       30.04F

$$

MARINE AND OFFSHORE BUOY REPORTS

STATION/POSITION SKY/WX   TEMP    WIND        PRES    VSBY  SWELL
                          AIR SEA DIR/SP/G                  HT/PER/DIR
                          (F)     (DEG/KT/KT) (MB)    (MI)  (FT/S/D)
TANNER BANKS               59 59  310/  8/ 10 1017.3F        10/300/17
S CLEMENTE BASIN           64 64  270/  6/  8 1016.8          7/280/17
SAN NICOLAS IS.               58                N/A           8/290/17
SO. S. ROSA ISLA           58 56  310/ 16/ 17 1017.5          8/290/16
W. S. BARBARA CH           56 55  320/ 21/ 25 1017.2F         8/300/16
M. S. BARBARA CH                                N/A           7/270/16
S. MONICA BASIN            63 61  300/  4/  6 1016.5F         5/270/16
S PEDRO CHANNEL               61                N/A           3/270/17
CMP PENDLETON NS              62                N/A           2/230/15
OCEANSIDE OFFSHR              62                N/A           2/260/17
TORREY PINES OTR              65                N/A           3/270/15
POINT LOMA SOUTH              64                N/A           5/270/17

$$





USA.gov is the U.S. government's official web portal to all federal, state and local government web resources and services.